{"data":{"norad_id":61531,"epoch":"2026-09-21T03:34:13.033344Z","epoch_age_seconds":136047,"freshness":"FRESH","line1":"1 61531U 24183Y   26264.14876196 -.00000132  00000+0  72182-5 0  9997","line2":"2 61531  53.1611 304.9250 0001326  84.6660 275.4494 15.34389347109710","mean_motion":15.34389347,"eccentricity":0.0001326,"inclination_deg":53.1611,"raan_deg":304.925,"arg_perigee_deg":84.666,"mean_anomaly_deg":275.4494,"bstar":7.2182e-6,"rev_number":10971,"period_min":93.848409650096,"perigee_km":461.82780373693,"apogee_km":463.6420029657,"semimajor_km":6840.8719033513,"source":"CELESTRAK","updated_at":"2026-09-22T09:00:49.362871Z"}}